Hourly Weather Sudovschina

Today, 20 January, Wednesday

Time Temperature Precipitation Wind Pressure Humidity
00:00 -19°C° 0 mm 1 mps 745 mmHg 98%
01:00 -19°C° 0 mm 1 mps 745 mmHg 98%
02:00 -19°C° 0 mm 1 mps 745 mmHg 99%
03:00 -19°C° 0 mm 1 mps 745 mmHg 99%
04:00 -19°C° 0 mm 1 mps 745 mmHg 99%
05:00 -19°C° 0 mm 1 mps 745 mmHg 99%
06:00 -19°C° 0 mm 1 mps 745 mmHg 99%
07:00 -19°C° 0 mm 1 mps 745 mmHg 99%
08:00 -19°C° 0 mm 1 mps 746 mmHg 98%
09:00 -20°C° 0 mm 2 mps 746 mmHg 97%
10:00 -19°C° 0 mm 2 mps 746 mmHg 95%
11:00 -18°C° 0 mm 3 mps 746 mmHg 94%
12:00 -18°C° 0 mm 3 mps 746 mmHg 94%
13:00 -17°C° 0 mm 3 mps 746 mmHg 93%
14:00 -16°C° 0 mm 3 mps 745 mmHg 93%
15:00 -17°C° 0 mm 3 mps 746 mmHg 93%
16:00 -18°C° 0 mm 3 mps 746 mmHg 94%
17:00 -20°C° 0 mm 4 mps 746 mmHg 94%
18:00 -19°C° 0 mm 4 mps 745 mmHg 94%
19:00 -19°C° 0 mm 4 mps 745 mmHg 93%
20:00 -19°C° 0 mm 4 mps 745 mmHg 92%
21:00 -20°C° 0 mm 5 mps 745 mmHg 92%
22:00 -19°C° 0 mm 5 mps 744 mmHg 91%
23:00 -19°C° 0 mm 5 mps 744 mmHg 90%

Tomorrow, 21 January, Thursday

Time Temperature Precipitation Wind Pressure Humidity
00:00 -18°C° 0 mm 5 mps 744 mmHg 91%
01:00 -18°C° 0 mm 6 mps 743 mmHg 92%
02:00 -17°C° 0 mm 6 mps 743 mmHg 92%
03:00 -16°C° 0.2 mm 6 mps 743 mmHg 93%
04:00 -16°C° 0.2 mm 6 mps 742 mmHg 93%
05:00 -15°C° 0.2 mm 6 mps 741 mmHg 93%
06:00 -14°C° 0.4 mm 6 mps 741 mmHg 94%
07:00 -14°C° 0.4 mm 6 mps 741 mmHg 94%
08:00 -12°C° 0.4 mm 6 mps 741 mmHg 94%
09:00 -11°C° 0.3 mm 6 mps 740 mmHg 94%
10:00 -10°C° 0.3 mm 6 mps 740 mmHg 94%
11:00 -9°C° 0.3 mm 6 mps 740 mmHg 93%
12:00 -6°C° 0.1 mm 6 mps 740 mmHg 93%
13:00 -5°C° 0.1 mm 6 mps 740 mmHg 93%
14:00 -4°C° 0.1 mm 5 mps 740 mmHg 93%
15:00 -4°C° 0 mm 5 mps 740 mmHg 93%
16:00 -4°C° 0 mm 5 mps 740 mmHg 94%
17:00 -2°C° 0 mm 5 mps 740 mmHg 94%
18:00 -2°C° 0 mm 5 mps 740 mmHg 94%
19:00 -2°C° 0 mm 5 mps 740 mmHg 94%
20:00 -2°C° 0 mm 5 mps 740 mmHg 93%
21:00 -2°C° 0 mm 5 mps 740 mmHg 94%
22:00 -4°C° 0 mm 5 mps 739 mmHg 94%
23:00 -5°C° 0 mm 5 mps 739 mmHg 95%

Day after tomorrow, 22 January, Friday

Time Temperature Precipitation Wind Pressure Humidity
00:00 -5°C° 0 mm 5 mps 739 mmHg 95%
01:00 -4°C° 0 mm 4 mps 739 mmHg 95%
02:00 -5°C° 0 mm 4 mps 739 mmHg 95%
03:00 -5°C° 0 mm 4 mps 739 mmHg 95%
04:00 -7°C° 0 mm 4 mps 739 mmHg 95%
05:00 -7°C° 0 mm 4 mps 739 mmHg 94%
06:00 -7°C° 0 mm 4 mps 739 mmHg 94%
07:00 -7°C° 0 mm 4 mps 739 mmHg 94%
08:00 -5°C° 0 mm 4 mps 739 mmHg 94%
09:00 -5°C° 0 mm 5 mps 738 mmHg 94%
10:00 -5°C° 0 mm 5 mps 738 mmHg 94%
11:00 -4°C° 0 mm 5 mps 738 mmHg 94%
12:00 -4°C° 0.1 mm 5 mps 738 mmHg 95%
13:00 -4°C° 0.1 mm 5 mps 738 mmHg 96%
14:00 -4°C° 0.1 mm 5 mps 737 mmHg 96%
15:00 -2°C° 0.1 mm 5 mps 737 mmHg 96%
16:00 -2°C° 0.1 mm 5 mps 737 mmHg 96%
17:00 -1°C° 0.1 mm 5 mps 736 mmHg 96%
18:00 -1°C° 0 mm 5 mps 737 mmHg 96%
19:00 -1°C° 0 mm 5 mps 737 mmHg 96%
20:00 -1°C° 0 mm 5 mps 737 mmHg 97%
21:00 -1°C° 0 mm 5 mps 736 mmHg 96%
22:00 -1°C° 0 mm 5 mps 736 mmHg 96%
23:00 -1°C° 0 mm 5 mps 736 mmHg 95%

23 January, Saturday

Time Temperature Precipitation Wind Pressure Humidity
00:00 -2°C° 0.1 mm 5 mps 736 mmHg 94%
01:00 -3°C° 0.1 mm 6 mps 736 mmHg 92%
02:00 -3°C° 0.1 mm 6 mps 736 mmHg 91%
03:00 -4°C° 0 mm 6 mps 736 mmHg 91%
04:00 -4°C° 0 mm 5 mps 735 mmHg 92%
05:00 -4°C° 0 mm 5 mps 735 mmHg 92%
06:00 -5°C° 0 mm 5 mps 736 mmHg 93%
07:00 -5°C° 0 mm 5 mps 736 mmHg 94%
08:00 -4°C° 0 mm 4 mps 736 mmHg 95%
09:00 -3°C° 0 mm 4 mps 736 mmHg 96%
10:00 -3°C° 0 mm 4 mps 736 mmHg 97%
11:00 -2°C° 0 mm 4 mps 736 mmHg 97%
12:00 -2°C° 0 mm 4 mps 736 mmHg 98%
13:00 -2°C° 0 mm 4 mps 736 mmHg 98%
14:00 -2°C° 0 mm 4 mps 736 mmHg 98%
15:00 -2°C° 0 mm 4 mps 736 mmHg 98%
16:00 -2°C° 0 mm 4 mps 736 mmHg 98%
17:00 -2°C° 0 mm 4 mps 736 mmHg 98%
18:00 -2°C° 0 mm 4 mps 736 mmHg 97%
19:00 -1°C° 0 mm 4 mps 736 mmHg 97%
20:00 -1°C° 0 mm 5 mps 736 mmHg 97%
21:00 -1°C° 0 mm 5 mps 736 mmHg 97%
22:00 -1°C° 0 mm 5 mps 736 mmHg 97%
23:00 -2°C° 0 mm 6 mps 736 mmHg 97%

24 January, Sunday

Time Temperature Precipitation Wind Pressure Humidity
00:00 -1°C° 0 mm 5 mps 735 mmHg 97%
01:00 -1°C° 0 mm 5 mps 735 mmHg 97%
02:00 -1°C° 0 mm 5 mps 735 mmHg 97%
03:00 -1°C° 0 mm 5 mps 735 mmHg 97%
04:00 -1°C° 0 mm 5 mps 734 mmHg 97%
05:00 -1°C° 0 mm 5 mps 734 mmHg 97%
06:00 -1°C° 0 mm 5 mps 734 mmHg 98%
07:00 0°C° 0 mm 5 mps 734 mmHg 98%
08:00 0°C° 0 mm 5 mps 734 mmHg 98%
09:00 0°C° 0.1 mm 5 mps 733 mmHg 98%
10:00 0°C° 0.1 mm 4 mps 733 mmHg 99%
11:00 0°C° 0.1 mm 4 mps 733 mmHg 99%
12:00 0°C° 0.2 mm 5 mps 732 mmHg 99%
13:00 0°C° 0.2 mm 5 mps 732 mmHg 99%
14:00 0°C° 0.2 mm 5 mps 731 mmHg 99%
15:00 -1°C° 0.2 mm 6 mps 731 mmHg 99%
16:00 -1°C° 0.2 mm 6 mps 730 mmHg 99%
17:00 -1°C° 0.2 mm 6 mps 730 mmHg 99%
18:00 +1°C° 0.3 mm 6 mps 729 mmHg 99%
19:00 +1°C° 0.3 mm 6 mps 729 mmHg 98%
20:00 +1°C° 0.3 mm 6 mps 729 mmHg 98%
21:00 0°C° 0.2 mm 7 mps 729 mmHg 98%
22:00 0°C° 0.2 mm 7 mps 729 mmHg 98%
23:00 0°C° 0.2 mm 7 mps 729 mmHg 97%

25 January, Monday

Time Temperature Precipitation Wind Pressure Humidity
00:00 0°C° 0.1 mm 7 mps 729 mmHg 97%
01:00 -1°C° 0.1 mm 7 mps 730 mmHg 96%
02:00 -1°C° 0.1 mm 7 mps 731 mmHg 95%
03:00 -1°C° 0 mm 6 mps 731 mmHg 94%
04:00 -1°C° 0 mm 5 mps 731 mmHg 93%
05:00 -1°C° 0 mm 5 mps 732 mmHg 92%
06:00 -1°C° 0 mm 5 mps 732 mmHg 92%
07:00 -2°C° 0 mm 5 mps 733 mmHg 93%
08:00 -2°C° 0 mm 5 mps 734 mmHg 93%
09:00 -2°C° 0 mm 5 mps 734 mmHg 92%
10:00 -2°C° 0 mm 5 mps 734 mmHg 91%
11:00 -2°C° 0 mm 4 mps 735 mmHg 89%
12:00 -2°C° 0 mm 4 mps 735 mmHg 90%
13:00 -1°C° 0 mm 3 mps 735 mmHg 90%
14:00 -1°C° 0 mm 3 mps 735 mmHg 91%
15:00 -1°C° 0 mm 3 mps 735 mmHg 93%
16:00 -1°C° 0 mm 3 mps 734 mmHg 94%
17:00 -1°C° 0 mm 3 mps 734 mmHg 96%
18:00 -1°C° 0 mm 4 mps 734 mmHg 96%
19:00 -1°C° 0 mm 4 mps 733 mmHg 96%
20:00 0°C° 0 mm 5 mps 733 mmHg 96%
21:00 0°C° 1.3 mm 5 mps 732 mmHg 96%
22:00 -1°C° 1.3 mm 6 mps 731 mmHg 96%
23:00 +1°C° 1.3 mm 6 mps 730 mmHg 97%
Show more